STARLINK-2043 (47659 NORAD) Tracking and Keplerian Element Data

This shows tracking and keplerian element data for the satellite.

Feedback or suggestion? Click here.




ElementValue
Catalog47659
NameSTARLINK-2043
Epoch Orbit1007
Epoch Day106.16668981
Epoch Year2021
RAAN167.8117
Inclination53.0455
Eccentricity0.0008704
Argument of Perigee347.0475
Mean Anonmoly49.3032
Mean Motion15.73223969
Decay Rate0.00045568
L11 47659U 21012AR 21106.16668981 .00045568 00000-0 32631-3 0 9998
L22 47659 53.0455 167.8117 0008704 347.0475 49.3032 15.73223969 10071

Live tracking and technical data element details for STARLINK-2043 (NORAD 47659). STARLINK-2043 can be tracked NOW for your location showing map with azimuth and elevation plus other details from your city location.

Track the satellite on the map from your city or location and see movement details for azimuth, elevation, latitude, longitude, range, height, and movement on the map or in text.







IsCatalogInMostPopularTable: catalog: 47659, numindb: 17
Update: records affected: 1



GetName: 47659 STARLINK-2043

Hit Count: updated at: Fri, 16 Apr 2021 11:42:02 GMT